Location: Tierra del Sol
(32.6128°N, 116.3319°W)
Time: 06:45:16
(UTC-07:00)

Vanguard 1 Rocket - Visible Passes

Search period start: 19 April 2018 00:00
Search period end: 29 April 2018 00:00
Orbit: 655 x 4223 km, 34.3° (Epoch: 18 April)

Date Brightness Start Highest point End Pass type
(mag) Time Alt. Az. Time Alt. Az. Time Alt. Az.
19 Apr 11.0 05:32:58 10° SSW 05:52:21 34° SSE 06:04:36 10° E visible
20 Apr 11.4 04:21:09 10° S 04:38:34 25° SE 04:51:17 10° E visible
21 Apr 11.7 03:12:27 10° SSE 03:24:27 15° SE 03:34:45 10° ESE visible
21 Apr 10.8 05:33:52 10° SSW 05:55:23 43° SSE 06:08:29 10° E visible
22 Apr 11.2 04:21:11 10° SSW 04:41:32 32° SE 04:55:51 10° E visible
23 Apr 11.5 03:11:20 11° S 03:27:26 22° SE 03:41:10 10° E visible
23 Apr 10.6 05:35:13 10° SW 05:58:20 52° SSE 06:12:07 10° E visible
24 Apr 11.7 02:05:06 10° SSE 02:13:14 12° SE 02:20:53 10° ESE visible
24 Apr 11.0 04:21:52 10° SSW 04:44:22 40° SE 04:59:51 10° E visible
25 Apr 11.3 03:14:49 16° S 03:30:11 29° SE 03:46:07 10° E visible
25 Apr 10.5 05:36:56 10° SW 06:01:14 61° SSE 06:15:34 10° ENE visible
26 Apr 11.5 02:07:48 15° SSE 02:16:02 18° SE 02:29:23 10° E visible
26 Apr 10.8 04:25:06 14° SSW 04:47:07 49° SSE 05:03:32 10° E visible
27 Apr 11.1 03:18:00 21° S 03:32:48 36° SE 03:50:21 10° E visible
27 Apr 10.4 05:38:57 10° SW 06:04:06 70° SSE 06:18:56 10° ENE visible
28 Apr 11.3 02:10:50 21° SSE 02:18:37 25° SE 02:35:05 10° E visible
28 Apr 10.7 04:28:07 16° SW 04:49:48 57° SSE 05:07:01 10° ENE visible
